EW5975 Weather Reports


time (UTC)temp
C
wind
direction
speed
KPH
gust
KPH
rain 1hr
cm
rain 24hr
cm
rain mn
cm
humidity
%
barometer
mb
20260506185017 17 270 1.6 8.0 0.00 1.75 1.65 56 1007.5
20260506184037 17 293 1.6 12.9 0.00 1.75 1.65 56 1007.4
20260506183017 17 270 1.6 12.9 0.00 1.75 1.65 56 1007.4
20260506182018 17 315 1.6 3.2 0.00 1.75 1.65 56 1007.4
20260506181017 17 248 1.6 9.7 0.00 1.75 1.65 56 1007.4
20260506180019 17 248 1.6 3.2 0.00 1.75 1.65 55 1007.3
20260506175037 17 248 1.6 4.8 0.00 1.75 1.65 53 1007.3
20260506174017 18 270 1.6 3.2 0.00 1.75 1.65 52 1007.3
20260506173017 18 0.0 4.8 0.00 1.75 1.65 50 1007.2
20260506172017 19 225 1.6 6.4 0.00 1.75 1.65 47 1007.1
20260506171017 20 225 1.6 6.4 0.00 1.75 1.65 46 1007.1
20260506170039 20 248 1.6 6.4 0.00 1.75 1.65 45 1007.1
20260506165018 21 248 1.6 11.3 0.00 1.75 1.65 43 1007.1
20260506164017 21 203 3.2 11.3 0.00 1.75 1.65 42 1007.1
20260506163017 21 248 1.6 8.0 0.00 1.75 1.65 44 1007.0
20260506162017 21 225 3.2 9.7 0.00 1.75 1.65 43 1007.0
20260506161017 21 113 3.2 9.7 0.00 1.75 1.65 42 1007.0
20260506160017 21 248 3.2 16.1 0.00 1.75 1.65 43 1007.0
20260506155017 21 158 3.2 14.5 0.00 1.75 1.65 42 1007.0
20260506154017 21 113 3.2 14.5 0.00 1.75 1.65 43 1007.0
20260506153017 21 113 4.8 14.5 0.00 1.75 1.65 43 1006.9
20260506152037 22 113 4.8 14.5 0.00 1.75 1.65 43 1006.9
20260506151017 22 203 3.2 14.5 0.00 1.75 1.65 43 1006.8
20260506150016 21 203 3.2 9.7 0.00 1.75 1.65 41 1007.0
20260506145037 21 113 6.4 17.7 0.00 1.75 1.65 40 1007.0
20260506144016 21 225 6.4 17.7 0.00 1.75 1.65 41 1007.1
20260506143037 21 225 6.4 22.5 0.00 1.75 1.65 40 1007.1
20260506142037 21 203 4.8 20.9 0.00 1.75 1.65 41 1007.1
20260506141016 21 90 4.8 27.4 0.00 1.75 1.65 42 1007.1
20260506140016 21 248 4.8 14.5 0.00 1.75 1.65 43 1007.1
20260506135018 21 113 4.8 20.9 0.00 1.75 1.65 44 1007.3
20260506134017 21 248 4.8 17.7 0.00 1.75 1.65 47 1007.3
20260506133016 21 203 6.4 16.1 0.00 1.75 1.65 44 1007.4
20260506132016 21 23 4.8 19.3 0.00 1.75 1.65 48 1007.5
20260506131017 21 248 3.2 8.0 0.00 1.75 1.65 49 1007.5
20260506130017 21 113 3.2 14.5 0.00 1.75 1.65 48 1007.7
20260506125016 21 113 6.4 17.7 0.00 1.75 1.65 49 1007.6
20260506124017 21 225 6.4 14.5 0.00 1.75 1.65 48 1007.6
20260506123016 21 248 3.2 11.3 0.00 1.78 1.65 50 1007.6
20260506122016 20 113 3.2 12.9 0.00 1.78 1.65 54 1007.7
20260506121057 20 203 3.2 11.3 0.00 1.80 1.65 57 1007.8
20260506120016 20 203 4.8 16.1 0.00 1.80 1.65 54 1007.9
20260506115016 20 225 3.2 12.9 0.00 1.80 1.65 58 1008.0
20260506114036 20 225 6.4 16.1 0.00 1.80 1.65 60 1008.2
20260506113016 19 23 3.2 9.7 0.00 1.80 1.65 62 1008.2
20260506112016 18 180 3.2 17.7 0.00 1.80 1.65 65 1008.4
20260506111016 18 248 3.2 8.0 0.00 1.80 1.65 67 1008.4
20260506110016 17 248 3.2 11.3 0.00 1.80 1.65 68 1008.5
20260506105016 17 180 1.6 9.7 0.00 1.80 1.65 71 1008.6
20260506104017 17 248 3.2 14.5 0.00 1.80 1.65 69 1008.7
20260506103016 17 225 4.8 12.9 0.00 1.80 1.65 71 1008.6
20260506102036 17 113 3.2 8.0 0.00 1.80 1.65 70 1008.6
20260506101016 18 248 3.2 14.5 0.00 1.80 1.65 72 1008.7
20260506100017 17 225 3.2 11.3 0.00 1.83 1.65 73 1008.6
20260506095016 17 248 3.2 9.7 0.00 1.83 1.65 74 1008.8
20260506094016 16 225 1.6 11.3 0.00 1.83 1.65 77 1008.8
20260506093036 16 248 3.2 11.3 0.00 1.83 1.65 76 1008.8
20260506092016 16 248 3.2 9.7 0.00 1.83 1.65 76 1008.8
20260506091016 16 203 3.2 8.0 0.00 1.83 1.65 79 1008.8
20260506090016 16 225 3.2 11.3 0.00 1.83 1.65 80 1008.6
20260506085016 16 90 4.8 12.9 0.00 1.85 1.65 82 1008.6
20260506084017 15 203 4.8 12.9 0.00 1.93 1.65 84 1008.5
20260506083016 16 225 6.4 17.7 0.00 1.93 1.65 87 1008.6
20260506082015 15 113 1.6 14.5 0.00 1.96 1.65 91 1008.4
20260506081015 15 203 3.2 11.3 0.00 1.96 1.65 92 1008.4
20260506073015 13 113 1.6 9.7 0.03 2.06 1.65 94 1008.4
20260506072017 12 0.0 0.0 0.05 2.06 1.65 94 1008.5
20260506071015 12 0.0 1.6 0.08 2.06 1.65 94 1008.5
20260506062017 12 0.0 0.0 0.05 2.03 1.57 93 1008.3
20260506061057 12 0.0 1.6 0.05 2.01 1.55 93 1008.3
20260506051017 11 0.0 0.0 0.00 1.96 1.52 93 1007.6
20260506045019 11 0.0 0.0 0.00 2.34 1.52 93 1007.5
20260506044017 11 0.0 0.0 0.00 2.34 1.52 93 1007.5
20260506043017 11 0.0 0.0 0.00 2.36 1.52 93 1007.5
20260506042017 11 0.0 0.0 0.00 2.36 1.52 93 1007.5
20260506041017 11 0.0 1.6 0.00 2.36 1.52 93 1007.6
20260506040018 11 0.0 0.0 0.03 2.36 1.52 93 1007.6
20260506035017 11 0.0 0.0 0.05 2.36 1.52 92 1007.5
20260506034017 11 0.0 0.0 0.10 2.36 1.52 92 1007.6
20260506033017 11 0.0 3.2 0.15 2.36 1.52 93 1007.7
20260506032017 11 0.0 1.6 0.15 2.36 1.52 92 1007.7
20260506031017 11 0.0 3.2 0.23 2.36 1.52 92 1007.9
20260506030017 11 0.0 0.0 0.36 2.34 1.50 92 1008.0
20260506025037 11 0.0 0.0 0.43 2.31 1.45 92 1008.3
20260506024017 11 0.0 0.0 0.43 2.26 1.42 92 1008.3
20260506023017 11 0.0 1.6 0.38 2.21 1.37 92 1008.4
20260506022017 11 0.0 0.0 0.36 2.21 1.37 92 1008.4
20260506021039 11 0.0 1.6 0.30 2.13 1.27 92 1008.4
20260506020017 11 248 1.6 4.8 0.15 2.01 1.14 92 1008.2
20260506015018 11 0.0 1.6 0.10 1.91 1.04 92 1008.0
20260506014016 11 0.0 0.0 0.08 1.88 0.99 91 1008.0
20260506013038 11 0.0 3.2 0.08 1.93 0.99 91 1007.6
20260506012017 11 0.0 0.0 0.08 2.16 0.99 91 1007.5
20260506011016 11 0.0 0.0 0.05 2.34 0.99 91 1007.8
20260506010017 11 0.0 1.6 0.05 2.49 0.99 91 1008.2
20260506005016 11 0.0 0.0 0.03 2.59 0.94 91 1008.5
20260506004037 11 315 1.6 4.8 0.00 2.67 0.91 91 1008.4
20260506003058 11 0.0 3.2 0.00 2.72 0.91 91 1008.3
20260506002057 11 0.0 0.0 0.00 2.77 0.91 91 1008.3
20260506001016 11 0.0 1.6 0.00 2.82 0.91 91 1008.7
20260506000017 11 0.0 1.6 0.08 2.84 0.91 91 1008.8
20260505235036 11 0.0 3.2 0.23 2.87 0.91 91 1008.9
20260505234017 11 293 1.6 4.8 0.41 2.90 0.91 91 1009.0
20260505233016 12 0.0 3.2 0.53 2.95 0.91 92 1009.3
20260505232017 12 0.0 3.2 0.64 2.97 0.91 91 1009.5
20260505231016 12 0.0 1.6 0.79 2.97 0.91 92 1010.0
20260505230017 12 0.0 3.2 0.84 2.90 0.84 92 1010.6
20260505225016 12 0.0 0.0 0.79 2.77 0.71 91 1010.7
20260505224016 12 203 1.6 4.8 0.61 2.59 0.51 91 1011.3
20260505223036 12 0.0 0.0 0.48 2.46 0.38 91 1010.9
20260505222016 12 0.0 4.8 0.38 2.36 0.28 91 1011.0
20260505221016 12 0.0 1.6 0.23 2.21 0.15 91 1011.1
20260505220016 12 0.0 0.0 0.10 2.08 2.08 91 1011.1
20260505215016 12 0.0 0.0 0.03 2.01 2.01 91 1010.9
20260505214016 12 0.0 0.0 0.00 1.98 1.98 90 1010.6
20260505213016 12 0.0 0.0 0.00 1.98 1.98 90 1010.9
20260505212016 12 0.0 0.0 0.00 1.98 1.98 90 1011.1
20260505211118 12 0.0 0.0 0.00 1.98 1.98 90 1011.4
20260505210017 12 0.0 0.0 0.00 1.98 1.98 90 1011.5
20260505205036 12 0.0 1.6 0.00 1.98 1.98 90 1011.3
20260505204016 12 0.0 1.6 0.00 1.98 1.98 89 1011.3
20260505203016 12 0.0 0.0 0.00 2.03 1.98 89 1011.3
20260505202056 12 0.0 0.0 0.00 2.11 1.98 89 1011.0
20260505201016 12 0.0 0.0 0.00 2.21 1.98 89 1011.1
20260505200016 12 0.0 1.6 0.00 2.21 1.98 89 1011.1
20260505195016 12 0.0 0.0 0.00 2.21 1.98 88 1011.2
20260505194015 13 0.0 0.0 0.00 2.21 1.98 88 1011.2
20260505193016 13 0.0 0.0 0.00 2.24 1.98 88 1011.1
20260505192016 14 0.0 1.6 0.00 2.24 1.98 88 1010.9
20260505191016 14 0.0 0.0 0.00 2.29 1.98 88 1010.8
20260505190017 14 0.0 0.0 0.00 2.31 1.98 88 1010.6